Time,TemperatureF,DewpointF,PressureIn,WindDirection,WindDirectionDegrees,WindSpeedMPH,WindSpeedGustMPH,Humidity,HourlyPrecipIn,Conditions,Clouds,dailyrainin,SoftwareType,DateUTC
2013-03-31 00:05:00,68.5,64.1,29.92,SE,132,1.0,2.0,86,0.00,,,0.00,LWC V2.11 B50,2013-03-31 05:05:00,
2013-03-31 00:10:00,68.3,64.3,29.92,SE,136,0.0,1.0,87,0.00,,,0.00,LWC V2.11 B50,2013-03-31 05:10:00,
2013-03-31 00:15:00,68.1,64.1,29.92,SE,136,0.0,0.0,87,0.00,,,0.00,LWC V2.11 B50,2013-03-31 05:15:00,
2013-03-31 00:20:00,68.0,64.0,29.92,South,189,0.0,3.0,87,0.00,,,0.00,LWC V2.11 B50,2013-03-31 05:20:00,
2013-03-31 00:25:00,67.8,64.1,29.92,South,176,0.0,1.0,88,0.00,,,0.00,LWC V2.11 B50,2013-03-31 05:25:00,
2013-03-31 00:30:00,67.7,64.0,29.91,SSW,194,0.0,1.0,88,0.00,,,0.00,LWC V2.11 B50,2013-03-31 05:30:00,
2013-03-31 00:35:00,67.6,64.2,29.91,SE,141,2.0,2.0,89,0.00,,,0.00,LWC V2.11 B50,2013-03-31 05:35:00,
2013-03-31 00:40:00,67.5,64.1,29.91,South,169,0.0,2.0,89,0.00,,,0.00,LWC V2.11 B50,2013-03-31 05:40:00,
2013-03-31 00:45:00,67.5,64.1,29.91,South,177,0.0,0.0,89,0.00,,,0.00,LWC V2.11 B50,2013-03-31 05:45:00,
2013-03-31 00:50:00,67.5,64.1,29.91,SSE,156,0.0,2.0,89,0.00,,,0.00,LWC V2.11 B50,2013-03-31 05:50:00,
2013-03-31 00:55:00,67.4,64.0,29.92,South,169,0.0,2.0,89,0.00,,,0.00,LWC V2.11 B50,2013-03-31 05:55:00,
2013-03-31 01:00:00,67.3,64.3,29.91,South,169,0.0,1.0,90,0.00,,,0.00,LWC V2.11 B50,2013-03-31 06:00:00,
2013-03-31 01:05:00,67.3,64.3,29.91,South,169,0.0,0.0,90,0.00,,,0.00,LWC V2.11 B50,2013-03-31 06:05:00,
2013-03-31 01:10:00,67.2,64.2,29.91,South,169,0.0,1.0,90,0.00,,,0.00,LWC V2.11 B50,2013-03-31 06:10:00,
2013-03-31 01:15:00,67.2,64.2,29.91,South,169,0.0,1.0,90,0.00,,,0.00,LWC V2.11 B50,2013-03-31 06:15:00,
2013-03-31 01:20:00,67.2,64.2,29.91,SE,131,0.0,2.0,90,0.00,,,0.00,LWC V2.11 B50,2013-03-31 06:20:00,
2013-03-31 01:25:00,67.1,64.1,29.91,SE,132,0.0,1.0,90,0.00,,,0.00,LWC V2.11 B50,2013-03-31 06:25:00,
2013-03-31 01:30:00,67.2,64.2,29.91,SSE,166,0.0,1.0,90,0.00,,,0.00,LWC V2.11 B50,2013-03-31 06:30:00,
2013-03-31 01:35:00,67.1,64.1,29.91,ESE,123,0.0,0.0,90,0.00,,,0.00,LWC V2.11 B50,2013-03-31 06:35:00,
2013-03-31 01:40:00,67.1,64.4,29.91,ESE,123,0.0,0.0,91,0.00,,,0.00,LWC V2.11 B50,2013-03-31 06:40:00,
2013-03-31 01:45:00,67.0,64.3,29.91,ESE,123,0.0,0.0,91,0.00,,,0.00,LWC V2.11 B50,2013-03-31 06:45:00,
2013-03-31 01:50:00,67.0,64.3,29.91,SE,134,0.0,1.0,91,0.00,,,0.00,LWC V2.11 B50,2013-03-31 06:50:00,
2013-03-31 01:55:00,66.9,64.2,29.91,SSE,147,0.0,3.0,91,0.00,,,0.00,LWC V2.11 B50,2013-03-31 06:55:00,
2013-03-31 02:00:00,66.8,64.1,29.91,SSE,150,0.0,0.0,91,0.00,,,0.00,LWC V2.11 B50,2013-03-31 07:00:00,
2013-03-31 02:05:00,66.8,64.1,29.91,SSE,151,1.0,1.0,91,0.00,,,0.00,LWC V2.11 B50,2013-03-31 07:05:00,
2013-03-31 02:10:00,66.8,64.1,29.91,South,174,1.0,1.0,91,0.00,,,0.00,LWC V2.11 B50,2013-03-31 07:10:00,
2013-03-31 02:15:00,66.7,64.3,29.91,South,182,0.0,1.0,92,0.00,,,0.00,LWC V2.11 B50,2013-03-31 07:15:00,
2013-03-31 02:20:00,66.7,64.3,29.91,South,182,0.0,0.0,92,0.00,,,0.00,LWC V2.11 B50,2013-03-31 07:20:00,
2013-03-31 02:25:00,66.7,64.3,29.91,South,182,0.0,0.0,92,0.00,,,0.00,LWC V2.11 B50,2013-03-31 07:25:00,
2013-03-31 02:30:00,66.7,64.3,29.91,South,184,0.0,2.0,92,0.00,,,0.00,LWC V2.11 B50,2013-03-31 07:30:00,
2013-03-31 02:36:00,66.8,64.4,29.90,South,188,2.0,4.0,92,0.00,,,0.00,LWC V2.11 B50,2013-03-31 07:36:00,
2013-03-31 02:41:00,66.8,64.4,29.90,South,175,0.0,2.0,92,0.00,,,0.00,LWC V2.11 B50,2013-03-31 07:41:00,
2013-03-31 02:46:00,66.9,64.5,29.90,South,183,0.0,2.0,92,0.00,,,0.00,LWC V2.11 B50,2013-03-31 07:46:00,
2013-03-31 02:51:00,66.9,64.5,29.90,SSE,154,0.0,0.0,92,0.00,,,0.00,LWC V2.11 B50,2013-03-31 07:51:00,
2013-03-31 02:56:00,66.9,64.5,29.90,SSE,154,0.0,0.0,92,0.00,,,0.00,LWC V2.11 B50,2013-03-31 07:56:00,
2013-03-31 03:01:00,67.0,64.6,29.89,South,175,0.0,0.0,92,0.00,,,0.00,LWC V2.11 B50,2013-03-31 08:01:00,
2013-03-31 03:06:00,67.0,64.6,29.90,South,175,0.0,0.0,92,0.00,,,0.00,LWC V2.11 B50,2013-03-31 08:06:00,
2013-03-31 03:11:00,67.0,64.6,29.89,South,173,0.0,0.0,92,0.00,,,0.00,LWC V2.11 B50,2013-03-31 08:11:00,
2013-03-31 03:16:00,67.0,64.6,29.89,South,173,0.0,0.0,92,0.00,,,0.00,LWC V2.11 B50,2013-03-31 08:16:00,
2013-03-31 03:21:00,67.0,64.6,29.89,South,173,0.0,0.0,92,0.00,,,0.00,LWC V2.11 B50,2013-03-31 08:21:00,
2013-03-31 03:26:00,67.0,64.6,29.89,South,184,0.0,0.0,92,0.00,,,0.00,LWC V2.11 B50,2013-03-31 08:26:00,
2013-03-31 03:32:00,67.0,64.6,29.88,South,182,0.0,0.0,92,0.00,,,0.00,LWC V2.11 B50,2013-03-31 08:32:00,
2013-03-31 03:37:00,66.9,64.5,29.88,South,190,0.0,0.0,92,0.00,,,0.00,LWC V2.11 B50,2013-03-31 08:37:00,
2013-03-31 03:42:00,66.9,64.5,29.88,South,184,0.0,1.0,92,0.00,,,0.00,LWC V2.11 B50,2013-03-31 08:42:00,
2013-03-31 03:47:00,66.9,64.5,29.88,SSW,209,0.0,0.0,92,0.00,,,0.00,LWC V2.11 B50,2013-03-31 08:47:00,
2013-03-31 03:52:00,66.8,64.4,29.88,SSW,209,0.0,0.0,92,0.00,,,0.00,LWC V2.11 B50,2013-03-31 08:52:00,
2013-03-31 03:57:00,66.8,64.4,29.88,SSW,209,0.0,0.0,92,0.00,,,0.00,LWC V2.11 B50,2013-03-31 08:57:00,
2013-03-31 04:02:00,66.8,64.4,29.88,SSE,148,0.0,0.0,92,0.00,,,0.00,LWC V2.11 B50,2013-03-31 09:02:00,
2013-03-31 04:07:00,66.8,64.4,29.88,SSE,167,1.0,1.0,92,0.00,,,0.00,LWC V2.11 B50,2013-03-31 09:07:00,
2013-03-31 04:12:00,66.8,64.4,29.88,SSE,157,0.0,0.0,92,0.00,,,0.00,LWC V2.11 B50,2013-03-31 09:12:00,
2013-03-31 04:17:00,66.8,64.4,29.88,SSE,157,0.0,0.0,92,0.00,,,0.00,LWC V2.11 B50,2013-03-31 09:17:00,
2013-03-31 04:22:00,66.7,64.6,29.88,SSE,157,0.0,0.0,93,0.00,,,0.00,LWC V2.11 B50,2013-03-31 09:22:00,
2013-03-31 04:27:00,66.7,64.6,29.88,SSE,157,0.0,0.0,93,0.00,,,0.00,LWC V2.11 B50,2013-03-31 09:27:00,
2013-03-31 04:32:00,66.7,64.6,29.88,SSE,157,0.0,0.0,93,0.00,,,0.00,LWC V2.11 B50,2013-03-31 09:32:00,
2013-03-31 04:37:00,66.7,64.6,29.88,ESE,122,0.0,0.0,93,0.00,,,0.00,LWC V2.11 B50,2013-03-31 09:37:00,
2013-03-31 04:42:00,66.7,64.6,29.88,ESE,122,0.0,0.0,93,0.00,,,0.00,LWC V2.11 B50,2013-03-31 09:42:00,
2013-03-31 04:47:00,66.7,64.6,29.88,ESE,122,0.0,0.0,93,0.00,,,0.00,LWC V2.11 B50,2013-03-31 09:47:00,
2013-03-31 04:52:00,66.7,64.6,29.87,ESE,122,0.0,0.0,93,0.00,,,0.00,LWC V2.11 B50,2013-03-31 09:52:00,
2013-03-31 04:57:00,66.7,64.6,29.87,ESE,122,0.0,0.0,93,0.00,,,0.00,LWC V2.11 B50,2013-03-31 09:57:00,
2013-03-31 05:02:00,66.7,64.6,29.87,SSW,211,0.0,0.0,93,0.00,,,0.00,LWC V2.11 B50,2013-03-31 10:02:00,
2013-03-31 05:08:00,66.7,64.6,29.87,South,181,0.0,2.0,93,0.00,,,0.00,LWC V2.11 B50,2013-03-31 10:08:00,
2013-03-31 05:13:00,66.8,64.4,29.87,South,184,0.0,1.0,92,0.00,,,0.00,LWC V2.11 B50,2013-03-31 10:13:00,
2013-03-31 05:18:00,66.8,64.7,29.87,South,189,0.0,0.0,93,0.00,,,0.00,LWC V2.11 B50,2013-03-31 10:18:00,
2013-03-31 05:23:00,66.8,64.4,29.87,South,190,0.0,2.0,92,0.00,,,0.00,LWC V2.11 B50,2013-03-31 10:23:00,
2013-03-31 05:28:00,66.8,64.4,29.87,SSW,198,0.0,1.0,92,0.00,,,0.00,LWC V2.11 B50,2013-03-31 10:28:00,
2013-03-31 05:33:00,66.8,64.4,29.87,SSW,197,0.0,1.0,92,0.00,,,0.00,LWC V2.11 B50,2013-03-31 10:33:00,
2013-03-31 05:38:00,66.8,64.4,29.87,SSW,207,1.0,2.0,92,0.00,,,0.00,LWC V2.11 B50,2013-03-31 10:38:00,
2013-03-31 05:43:00,66.8,64.4,29.87,SSW,207,1.0,1.0,92,0.00,,,0.00,LWC V2.11 B50,2013-03-31 10:43:00,
2013-03-31 05:48:00,66.8,64.4,29.86,SSW,207,0.0,2.0,92,0.00,,,0.00,LWC V2.11 B50,2013-03-31 10:48:00,
2013-03-31 05:53:00,66.8,64.4,29.86,SSW,207,0.0,0.0,92,0.00,,,0.00,LWC V2.11 B50,2013-03-31 10:53:00,
2013-03-31 05:58:00,66.8,64.4,29.86,SSW,207,0.0,0.0,92,0.00,,,0.00,LWC V2.11 B50,2013-03-31 10:58:00,
2013-03-31 06:03:00,66.8,64.4,29.86,SSW,207,0.0,0.0,92,0.00,,,0.00,LWC V2.11 B50,2013-03-31 11:03:00,
2013-03-31 06:08:00,66.8,64.4,29.86,SSW,207,0.0,0.0,92,0.00,,,0.00,LWC V2.11 B50,2013-03-31 11:08:00,
2013-03-31 06:13:00,66.7,64.3,29.87,SSW,207,0.0,1.0,92,0.00,,,0.00,LWC V2.11 B50,2013-03-31 11:13:00,
2013-03-31 06:18:00,66.8,64.4,29.86,SSW,207,0.0,0.0,92,0.00,,,0.00,LWC V2.11 B50,2013-03-31 11:18:00,
2013-03-31 06:23:00,66.8,64.4,29.87,SSW,207,0.0,0.0,92,0.00,,,0.00,LWC V2.11 B50,2013-03-31 11:23:00,
2013-03-31 06:28:00,66.7,64.3,29.87,SSW,207,0.0,1.0,92,0.00,,,0.00,LWC V2.11 B50,2013-03-31 11:28:00,
2013-03-31 06:33:00,66.7,64.3,29.87,SSW,207,0.0,1.0,92,0.00,,,0.00,LWC V2.11 B50,2013-03-31 11:33:00,
2013-03-31 06:38:00,66.7,64.3,29.87,SSW,207,0.0,0.0,92,0.00,,,0.00,LWC V2.11 B50,2013-03-31 11:38:00,
2013-03-31 06:43:00,66.7,64.3,29.88,SSW,207,0.0,0.0,92,0.00,,,0.00,LWC V2.11 B50,2013-03-31 11:43:00,
2013-03-31 06:48:00,66.7,64.3,29.88,SSW,207,0.0,0.0,92,0.00,,,0.00,LWC V2.11 B50,2013-03-31 11:48:00,
2013-03-31 06:53:00,66.7,64.6,29.88,SSW,207,0.0,0.0,93,0.00,,,0.00,LWC V2.11 B50,2013-03-31 11:53:00,
2013-03-31 06:58:00,66.7,64.6,29.88,SSW,202,0.0,1.0,93,0.00,,,0.00,LWC V2.11 B50,2013-03-31 11:58:00,
2013-03-31 07:03:00,66.6,64.5,29.88,SSW,202,1.0,2.0,93,0.00,,,0.00,LWC V2.11 B50,2013-03-31 12:03:00,
2013-03-31 07:08:00,66.6,64.5,29.89,SSW,202,0.0,1.0,93,0.00,,,0.00,LWC V2.11 B50,2013-03-31 12:08:00,
2013-03-31 07:13:00,66.6,64.5,29.89,SSW,202,0.0,0.0,93,0.00,,,0.00,LWC V2.11 B50,2013-03-31 12:13:00,
2013-03-31 07:18:00,66.6,64.5,29.89,SSW,202,0.0,0.0,93,0.00,,,0.00,LWC V2.11 B50,2013-03-31 12:18:00,
2013-03-31 07:23:00,66.6,64.5,29.88,SSW,202,0.0,0.0,93,0.00,,,0.00,LWC V2.11 B50,2013-03-31 12:23:00,
2013-03-31 07:28:00,66.6,64.5,29.88,SSW,202,0.0,0.0,93,0.00,,,0.00,LWC V2.11 B50,2013-03-31 12:28:00,
2013-03-31 07:33:00,66.6,64.5,29.88,SSW,202,0.0,0.0,93,0.00,,,0.00,LWC V2.11 B50,2013-03-31 12:33:00,
2013-03-31 07:39:00,66.5,64.4,29.88,SSW,202,0.0,0.0,93,0.00,,,0.00,LWC V2.11 B50,2013-03-31 12:39:00,
2013-03-31 07:44:00,66.5,64.1,29.89,SSW,202,0.0,0.0,92,0.00,,,0.00,LWC V2.11 B50,2013-03-31 12:44:00,
2013-03-31 07:49:00,66.5,64.1,29.89,SSW,202,0.0,0.0,92,0.00,,,0.00,LWC V2.11 B50,2013-03-31 12:49:00,
2013-03-31 07:54:00,66.5,64.1,29.89,SSW,203,0.0,1.0,92,0.00,,,0.00,LWC V2.11 B50,2013-03-31 12:54:00,
2013-03-31 07:59:00,66.5,64.1,29.89,SSW,203,0.0,0.0,92,0.00,,,0.00,LWC V2.11 B50,2013-03-31 12:59:00,
2013-03-31 08:04:00,66.5,64.1,29.89,SSW,201,0.0,0.0,92,0.00,,,0.00,LWC V2.11 B50,2013-03-31 13:04:00,
2013-03-31 08:09:00,66.6,64.2,29.90,SSW,201,0.0,2.0,92,0.00,,,0.00,LWC V2.11 B50,2013-03-31 13:09:00,
2013-03-31 08:14:00,66.6,64.2,29.90,SW,219,0.0,0.0,92,0.00,,,0.00,LWC V2.11 B50,2013-03-31 13:14:00,
2013-03-31 08:19:00,66.6,64.2,29.90,SW,219,0.0,1.0,92,0.00,,,0.00,LWC V2.11 B50,2013-03-31 13:19:00,
2013-03-31 08:24:00,66.7,64.3,29.90,SW,219,0.0,1.0,92,0.00,,,0.00,LWC V2.11 B50,2013-03-31 13:24:00,
2013-03-31 08:29:00,66.8,64.4,29.90,SW,219,0.0,1.0,92,0.00,,,0.00,LWC V2.11 B50,2013-03-31 13:29:00,
2013-03-31 08:34:00,66.8,64.4,29.91,SW,219,0.0,0.0,92,0.00,,,0.00,LWC V2.11 B50,2013-03-31 13:34:00,
2013-03-31 08:39:00,67.0,64.3,29.91,SSW,199,0.0,2.0,91,0.00,,,0.00,LWC V2.11 B50,2013-03-31 13:39:00,
2013-03-31 08:44:00,67.0,64.3,29.91,SSW,199,0.0,1.0,91,0.00,,,0.00,LWC V2.11 B50,2013-03-31 13:44:00,
2013-03-31 08:49:00,67.1,64.4,29.91,SSW,197,0.0,1.0,91,0.00,,,0.00,LWC V2.11 B50,2013-03-31 13:49:00,
2013-03-31 08:54:00,67.2,64.5,29.91,SSW,197,0.0,0.0,91,0.00,,,0.00,LWC V2.11 B50,2013-03-31 13:54:00,
2013-03-31 08:59:00,67.3,64.6,29.91,SSW,213,0.0,2.0,91,0.00,,,0.00,LWC V2.11 B50,2013-03-31 13:59:00,
2013-03-31 09:04:00,67.4,64.4,29.91,SSW,213,1.0,2.0,90,0.00,,,0.00,LWC V2.11 B50,2013-03-31 14:04:00,
2013-03-31 09:09:00,67.4,64.4,29.91,SSW,213,0.0,1.0,90,0.00,,,0.00,LWC V2.11 B50,2013-03-31 14:09:00,
2013-03-31 09:14:00,67.6,64.6,29.92,SSE,155,0.0,0.0,90,0.00,,,0.00,LWC V2.11 B50,2013-03-31 14:14:00,
2013-03-31 09:19:00,67.7,64.7,29.92,South,169,0.0,0.0,90,0.00,,,0.00,LWC V2.11 B50,2013-03-31 14:19:00,
2013-03-31 09:24:00,67.9,64.9,29.92,South,169,0.0,1.0,90,0.00,,,0.00,LWC V2.11 B50,2013-03-31 14:24:00,
2013-03-31 09:29:00,68.0,64.6,29.92,South,175,0.0,1.0,89,0.00,,,0.00,LWC V2.11 B50,2013-03-31 14:29:00,
2013-03-31 09:34:00,68.1,64.7,29.91,South,175,0.0,0.0,89,0.00,,,0.00,LWC V2.11 B50,2013-03-31 14:34:00,
2013-03-31 09:39:00,68.3,64.6,29.91,SSW,211,1.0,2.0,88,0.00,,,0.00,LWC V2.11 B50,2013-03-31 14:39:00,
2013-03-31 09:44:00,68.5,64.5,29.91,SW,216,0.0,3.0,87,0.00,,,0.00,LWC V2.11 B50,2013-03-31 14:44:00,
2013-03-31 09:49:00,68.8,64.8,29.90,South,188,0.0,3.0,87,0.00,,,0.00,LWC V2.11 B50,2013-03-31 14:49:00,
2013-03-31 09:54:00,69.2,64.8,29.90,South,174,1.0,4.0,86,0.00,,,0.00,LWC V2.11 B50,2013-03-31 14:54:00,
2013-03-31 09:59:00,69.5,64.8,29.90,South,170,1.0,5.0,85,0.00,,,0.00,LWC V2.11 B50,2013-03-31 14:59:00,
2013-03-31 10:04:00,69.7,65.0,29.90,WSW,240,0.0,0.0,85,0.00,,,0.00,LWC V2.11 B50,2013-03-31 15:04:00,
2013-03-31 10:10:00,69.9,65.2,29.90,WSW,238,0.0,3.0,85,0.00,,,0.00,LWC V2.11 B50,2013-03-31 15:10:00,
2013-03-31 10:15:00,70.1,65.0,29.91,SSE,153,0.0,2.0,84,0.00,,,0.00,LWC V2.11 B50,2013-03-31 15:15:00,
2013-03-31 10:20:00,70.2,65.1,29.90,SW,221,0.0,1.0,84,0.00,,,0.00,LWC V2.11 B50,2013-03-31 15:20:00,
2013-03-31 10:25:00,70.4,65.0,29.91,SSE,168,2.0,2.0,83,0.00,,,0.00,LWC V2.11 B50,2013-03-31 15:25:00,
2013-03-31 10:30:00,70.3,64.9,29.91,South,172,0.0,1.0,83,0.00,,,0.00,LWC V2.11 B50,2013-03-31 15:30:00,
2013-03-31 10:35:00,70.5,64.7,29.91,West,264,3.0,5.0,82,0.00,,,0.00,LWC V2.11 B50,2013-03-31 15:35:00,
2013-03-31 10:40:00,70.7,64.9,29.92,West,264,1.0,2.0,82,0.00,,,0.00,LWC V2.11 B50,2013-03-31 15:40:00,
2013-03-31 10:45:00,70.9,65.1,29.91,West,264,1.0,1.0,82,0.00,,,0.00,LWC V2.11 B50,2013-03-31 15:45:00,
2013-03-31 10:50:00,71.2,65.1,29.91,WNW,286,0.0,0.0,81,0.00,,,0.00,LWC V2.11 B50,2013-03-31 15:50:00,
2013-03-31 10:55:00,72.0,65.1,29.90,WNW,300,0.0,1.0,79,0.00,,,0.00,LWC V2.11 B50,2013-03-31 15:55:00,
2013-03-31 11:00:00,72.4,65.5,29.91,WNW,300,0.0,0.0,79,0.00,,,0.00,LWC V2.11 B50,2013-03-31 16:00:00,
2013-03-31 11:05:00,73.5,65.8,29.90,WNW,300,0.0,1.0,77,0.00,,,0.00,LWC V2.11 B50,2013-03-31 16:05:00,
2013-03-31 11:10:00,74.7,65.8,29.90,SSW,204,0.0,3.0,74,0.00,,,0.00,LWC V2.11 B50,2013-03-31 16:10:00,
2013-03-31 11:15:00,75.5,66.2,29.90,South,188,0.0,1.0,73,0.00,,,0.00,LWC V2.11 B50,2013-03-31 16:15:00,
2013-03-31 11:20:00,75.9,66.2,29.90,South,182,0.0,1.0,72,0.00,,,0.00,LWC V2.11 B50,2013-03-31 16:20:00,
2013-03-31 11:25:00,76.5,66.0,29.90,East,101,1.0,5.0,70,0.00,,,0.00,LWC V2.11 B50,2013-03-31 16:25:00,
2013-03-31 11:30:00,76.7,65.7,29.90,SSW,192,2.0,3.0,69,0.00,,,0.00,LWC V2.11 B50,2013-03-31 16:30:00,
2013-03-31 11:35:00,76.6,65.6,29.90,South,190,1.0,4.0,69,0.00,,,0.00,LWC V2.11 B50,2013-03-31 16:35:00,
2013-03-31 11:40:00,76.4,65.5,29.90,South,186,0.0,5.0,69,0.00,,,0.00,LWC V2.11 B50,2013-03-31 16:40:00,
2013-03-31 11:45:00,76.7,66.2,29.90,SW,215,2.0,2.0,70,0.00,,,0.00,LWC V2.11 B50,2013-03-31 16:45:00,
2013-03-31 11:50:00,77.1,66.1,29.91,SW,215,0.0,1.0,69,0.00,,,0.00,LWC V2.11 B50,2013-03-31 16:50:00,
2013-03-31 11:55:00,77.8,65.9,29.91,SSE,168,0.0,2.0,67,0.00,,,0.00,LWC V2.11 B50,2013-03-31 16:55:00,
2013-03-31 12:00:00,78.0,65.3,29.91,SW,232,1.0,8.0,65,0.00,,,0.00,LWC V2.11 B50,2013-03-31 17:00:00,
2013-03-31 12:05:00,77.5,65.2,29.91,SW,236,2.0,3.0,66,0.00,,,0.00,LWC V2.11 B50,2013-03-31 17:05:00,
2013-03-31 12:10:00,77.3,65.5,29.91,South,169,0.0,5.0,67,0.00,,,0.00,LWC V2.11 B50,2013-03-31 17:10:00,
2013-03-31 12:15:00,77.4,65.6,29.91,South,180,2.0,2.0,67,0.00,,,0.00,LWC V2.11 B50,2013-03-31 17:15:00,
2013-03-31 12:20:00,77.4,65.6,29.91,South,180,0.0,1.0,67,0.00,,,0.00,LWC V2.11 B50,2013-03-31 17:20:00,
2013-03-31 12:25:00,77.1,65.7,29.91,SW,219,3.0,4.0,68,0.00,,,0.00,LWC V2.11 B50,2013-03-31 17:25:00,
2013-03-31 12:30:00,77.0,65.6,29.91,South,186,1.0,3.0,68,0.00,,,0.00,LWC V2.11 B50,2013-03-31 17:30:00,
2013-03-31 12:35:00,77.5,65.2,29.90,SSW,203,1.0,5.0,66,0.00,,,0.00,LWC V2.11 B50,2013-03-31 17:35:00,
2013-03-31 12:41:00,78.0,65.7,29.90,South,171,2.0,2.0,66,0.00,,,0.00,LWC V2.11 B50,2013-03-31 17:41:00,
2013-03-31 12:46:00,78.3,65.5,29.89,SSE,165,5.0,5.0,65,0.00,,,0.00,LWC V2.11 B50,2013-03-31 17:46:00,
2013-03-31 12:51:00,78.3,65.5,29.89,South,175,2.0,6.0,65,0.00,,,0.00,LWC V2.11 B50,2013-03-31 17:51:00,
2013-03-31 12:56:00,78.2,65.4,29.89,SW,236,2.0,3.0,65,0.00,,,0.00,LWC V2.11 B50,2013-03-31 17:56:00,
2013-03-31 13:01:00,77.8,65.5,29.88,SSE,162,0.0,3.0,66,0.00,,,0.00,LWC V2.11 B50,2013-03-31 18:01:00,
2013-03-31 13:06:00,78.5,66.2,29.88,South,188,1.0,4.0,66,0.00,,,0.00,LWC V2.11 B50,2013-03-31 18:06:00,
2013-03-31 13:11:00,78.8,65.6,29.88,South,190,1.0,4.0,64,0.00,,,0.00,LWC V2.11 B50,2013-03-31 18:11:00,
2013-03-31 13:16:00,79.1,65.9,29.88,ESE,111,0.0,2.0,64,0.00,,,0.00,LWC V2.11 B50,2013-03-31 18:16:00,
2013-03-31 13:21:00,79.5,66.2,29.88,South,177,1.0,2.0,64,0.00,,,0.00,LWC V2.11 B50,2013-03-31 18:21:00,
2013-03-31 13:26:00,80.2,65.5,29.87,SSE,168,2.0,4.0,61,0.00,,,0.00,LWC V2.11 B50,2013-03-31 18:26:00,
2013-03-31 13:31:00,80.1,65.9,29.87,South,180,0.0,2.0,62,0.00,,,0.00,LWC V2.11 B50,2013-03-31 18:31:00,
2013-03-31 13:36:00,80.3,65.6,29.86,South,179,0.0,2.0,61,0.00,,,0.00,LWC V2.11 B50,2013-03-31 18:36:00,
2013-03-31 13:41:00,80.7,66.0,29.86,South,186,1.0,2.0,61,0.00,,,0.00,LWC V2.11 B50,2013-03-31 18:41:00,
2013-03-31 13:46:00,81.0,66.3,29.86,SW,229,1.0,2.0,61,0.00,,,0.00,LWC V2.11 B50,2013-03-31 18:46:00,
2013-03-31 13:51:00,81.6,65.9,29.86,SE,142,1.0,5.0,59,0.00,,,0.00,LWC V2.11 B50,2013-03-31 18:51:00,
2013-03-31 13:57:00,81.7,65.9,29.86,SE,136,1.0,5.0,59,0.00,,,0.00,LWC V2.11 B50,2013-03-31 18:57:00,
2013-03-31 14:02:00,81.8,66.0,29.86,WSW,250,2.0,3.0,59,0.00,,,0.00,LWC V2.11 B50,2013-03-31 19:02:00,
2013-03-31 14:07:00,82.2,65.9,29.85,SSW,201,2.0,3.0,58,0.00,,,0.00,LWC V2.11 B50,2013-03-31 19:07:00,
2013-03-31 14:12:00,82.5,65.7,29.85,SW,223,1.0,4.0,57,0.00,,,0.00,LWC V2.11 B50,2013-03-31 19:12:00,
2013-03-31 14:17:00,82.9,66.1,29.86,South,181,0.0,2.0,57,0.00,,,0.00,LWC V2.11 B50,2013-03-31 19:17:00,
2013-03-31 14:22:00,83.0,65.7,29.86,ESE,116,0.0,1.0,56,0.00,,,0.00,LWC V2.11 B50,2013-03-31 19:22:00,
2013-03-31 14:27:00,82.3,65.0,29.87,NNE,27,1.0,3.0,56,0.00,,,0.00,LWC V2.11 B50,2013-03-31 19:27:00,
2013-03-31 14:32:00,82.0,64.7,29.86,WNW,294,0.0,2.0,56,0.00,,,0.00,LWC V2.11 B50,2013-03-31 19:32:00,
2013-03-31 14:37:00,82.4,65.6,29.87,NE,46,0.0,3.0,57,0.00,,,0.00,LWC V2.11 B50,2013-03-31 19:37:00,
2013-03-31 14:42:00,82.4,65.1,29.87,NNW,333,0.0,5.0,56,0.00,,,0.00,LWC V2.11 B50,2013-03-31 19:42:00,
2013-03-31 14:47:00,82.2,64.4,29.87,NE,39,0.0,6.0,55,0.00,,,0.00,LWC V2.11 B50,2013-03-31 19:47:00,
2013-03-31 14:52:00,82.3,65.5,29.86,ENE,65,2.0,3.0,57,0.00,,,0.00,LWC V2.11 B50,2013-03-31 19:52:00,
2013-03-31 14:57:00,82.5,64.7,29.86,NE,45,0.0,3.0,55,0.00,,,0.00,LWC V2.11 B50,2013-03-31 19:57:00,
2013-03-31 15:02:00,82.5,64.1,29.85,NNE,33,3.0,5.0,54,0.00,,,0.00,LWC V2.11 B50,2013-03-31 20:02:00,
2013-03-31 15:08:00,82.4,64.1,29.85,ENE,57,0.0,3.0,54,0.00,,,0.00,LWC V2.11 B50,2013-03-31 20:08:00,
2013-03-31 15:13:00,82.4,64.6,29.85,ENE,59,0.0,1.0,55,0.00,,,0.00,LWC V2.11 B50,2013-03-31 20:13:00,
2013-03-31 15:18:00,82.6,64.2,29.84,ENE,61,0.0,2.0,54,0.00,,,0.00,LWC V2.11 B50,2013-03-31 20:18:00,
2013-03-31 15:23:00,83.1,64.7,29.85,NNE,27,3.0,6.0,54,0.00,,,0.00,LWC V2.11 B50,2013-03-31 20:23:00,
2013-03-31 15:28:00,82.3,64.0,29.84,NNE,21,1.0,3.0,54,0.00,,,0.00,LWC V2.11 B50,2013-03-31 20:28:00,
2013-03-31 15:33:00,82.0,64.2,29.83,NNE,21,0.0,1.0,55,0.00,,,0.00,LWC V2.11 B50,2013-03-31 20:33:00,
2013-03-31 15:38:00,82.1,64.8,29.83,NE,38,2.0,2.0,56,0.00,,,0.00,LWC V2.11 B50,2013-03-31 20:38:00,
2013-03-31 15:43:00,82.0,64.7,29.82,East,92,0.0,5.0,56,0.00,,,0.00,LWC V2.11 B50,2013-03-31 20:43:00,
2013-03-31 15:48:00,81.8,64.5,29.82,ENE,69,1.0,2.0,56,0.00,,,0.00,LWC V2.11 B50,2013-03-31 20:48:00,
2013-03-31 15:53:00,81.5,64.3,29.82,NE,47,0.0,1.0,56,0.00,,,0.00,LWC V2.11 B50,2013-03-31 20:53:00,
2013-03-31 15:58:00,81.1,64.4,29.82,NNE,22,4.0,5.0,57,0.00,,,0.00,LWC V2.11 B50,2013-03-31 20:58:00,
2013-03-31 16:03:00,80.9,64.2,29.83,North,350,8.0,8.0,57,0.00,,,0.00,LWC V2.11 B50,2013-03-31 21:03:00,
2013-03-31 16:08:00,80.6,64.4,29.83,NNW,334,4.0,7.0,58,0.00,,,0.00,LWC V2.11 B50,2013-03-31 21:08:00,
2013-03-31 16:13:00,79.6,64.5,29.84,NNE,26,2.0,14.0,60,0.00,,,0.00,LWC V2.11 B50,2013-03-31 21:13:00,
2013-03-31 16:18:00,79.0,64.8,29.84,NNE,24,2.0,9.0,62,0.00,,,0.00,LWC V2.11 B50,2013-03-31 21:18:00,
2013-03-31 16:23:00,78.5,64.4,29.85,North,11,8.0,8.0,62,0.00,,,0.00,LWC V2.11 B50,2013-03-31 21:23:00,
2013-03-31 16:28:00,78.3,64.6,29.86,North,0,3.0,9.0,63,0.00,,,0.00,LWC V2.11 B50,2013-03-31 21:28:00,
2013-03-31 16:33:00,78.2,64.6,29.86,NNE,25,7.0,9.0,63,0.00,,,0.00,LWC V2.11 B50,2013-03-31 21:33:00,
2013-03-31 16:38:00,77.9,64.3,29.86,NNE,30,3.0,11.0,63,0.00,,,0.00,LWC V2.11 B50,2013-03-31 21:38:00,
2013-03-31 16:43:00,77.8,64.6,29.86,NE,44,3.0,5.0,64,0.00,,,0.00,LWC V2.11 B50,2013-03-31 21:43:00,
2013-03-31 16:48:00,77.2,65.4,29.85,NE,41,2.0,7.0,67,0.00,,,0.00,LWC V2.11 B50,2013-03-31 21:48:00,
2013-03-31 16:53:00,75.9,65.8,29.86,ENE,75,4.0,6.0,71,0.00,,,0.01,LWC V2.11 B50,2013-03-31 21:53:00,
2013-03-31 16:58:00,74.9,66.0,29.86,NNW,334,1.0,7.0,74,0.00,,,0.01,LWC V2.11 B50,2013-03-31 21:58:00,
2013-03-31 17:03:00,74.3,66.6,29.87,NNE,19,0.0,3.0,77,0.00,,,0.01,LWC V2.11 B50,2013-03-31 22:03:00,
2013-03-31 17:08:00,73.6,66.7,29.87,NNE,26,3.0,8.0,79,0.00,,,0.01,LWC V2.11 B50,2013-03-31 22:08:00,
2013-03-31 17:13:00,73.0,66.8,29.87,NE,38,3.0,5.0,81,0.00,,,0.01,LWC V2.11 B50,2013-03-31 22:13:00,
2013-03-31 17:18:00,72.5,66.3,29.88,NNE,24,1.0,5.0,81,0.00,,,0.02,LWC V2.11 B50,2013-03-31 22:18:00,
2013-03-31 17:23:00,72.2,66.7,29.88,NE,38,0.0,1.0,83,0.00,,,0.02,LWC V2.11 B50,2013-03-31 22:23:00,
2013-03-31 17:29:00,71.7,66.9,29.88,NNE,13,2.0,4.0,85,0.06,,,0.03,LWC V2.11 B50,2013-03-31 22:29:00,
2013-03-31 17:34:00,71.0,66.9,29.86,North,355,7.0,10.0,87,0.11,,,0.04,LWC V2.11 B50,2013-03-31 22:34:00,
2013-03-31 17:39:00,70.3,66.9,29.86,NNW,348,12.0,12.0,89,0.18,,,0.05,LWC V2.11 B50,2013-03-31 22:39:00,
2013-03-31 17:44:00,70.1,67.0,29.86,North,0,5.0,12.0,90,0.07,,,0.05,LWC V2.11 B50,2013-03-31 22:44:00,
2013-03-31 17:49:00,70.1,67.0,29.89,NW,311,1.0,4.0,90,0.04,,,0.05,LWC V2.11 B50,2013-03-31 22:49:00,
2013-03-31 17:54:00,70.1,67.3,29.91,WNW,289,5.0,12.0,91,0.04,,,0.06,LWC V2.11 B50,2013-03-31 22:54:00,
2013-03-31 17:59:00,69.9,67.1,29.91,West,280,1.0,1.0,91,0.12,,,0.07,LWC V2.11 B50,2013-03-31 22:59:00,
2013-03-31 18:04:00,69.5,66.8,29.92,WNW,297,1.0,5.0,91,0.17,,,0.08,LWC V2.11 B50,2013-03-31 23:04:00,
2013-03-31 18:09:00,69.2,65.2,29.91,NNW,327,6.0,11.0,87,0.11,,,0.09,LWC V2.11 B50,2013-03-31 23:09:00,
2013-03-31 18:14:00,68.8,64.8,29.90,NNW,334,2.0,5.0,87,0.14,,,0.10,LWC V2.11 B50,2013-03-31 23:14:00,
2013-03-31 18:19:00,68.5,64.8,29.90,NNW,344,1.0,2.0,88,0.15,,,0.12,LWC V2.11 B50,2013-03-31 23:19:00,
2013-03-31 18:24:00,68.0,64.6,29.89,NNW,344,1.0,2.0,89,0.15,,,0.13,LWC V2.11 B50,2013-03-31 23:24:00,
2013-03-31 18:29:00,67.4,64.7,29.86,NW,317,2.0,2.0,91,0.17,,,0.14,LWC V2.11 B50,2013-03-31 23:29:00,
2013-03-31 18:34:00,66.7,64.0,29.82,SE,144,1.0,4.0,91,0.07,,,0.14,LWC V2.11 B50,2013-03-31 23:34:00,
2013-03-31 18:39:00,66.4,64.0,29.81,SSW,192,0.0,3.0,92,0.05,,,0.14,LWC V2.11 B50,2013-03-31 23:39:00,
2013-03-31 18:44:00,66.2,63.5,29.81,SSE,152,0.0,2.0,91,0.00,,,0.14,LWC V2.11 B50,2013-03-31 23:44:00,
2013-03-31 18:49:00,66.3,63.3,29.83,North,0,0.0,7.0,90,0.00,,,0.14,LWC V2.11 B50,2013-03-31 23:49:00,
2013-03-31 18:55:00,66.5,64.1,29.82,North,355,2.0,2.0,92,0.00,,,0.15,LWC V2.11 B50,2013-03-31 23:55:00,
2013-03-31 19:00:00,66.6,64.2,29.81,NE,38,1.0,2.0,92,0.00,,,0.15,LWC V2.11 B50,2013-04-01 00:00:00,
2013-03-31 19:05:00,66.6,64.2,29.80,NE,38,1.0,2.0,92,0.00,,,0.15,LWC V2.11 B50,2013-04-01 00:05:00,
2013-03-31 19:10:00,66.6,63.9,29.80,NE,38,1.0,1.0,91,0.00,,,0.15,LWC V2.11 B50,2013-04-01 00:10:00,
2013-03-31 19:15:00,66.7,64.3,29.80,NE,38,0.0,0.0,92,0.00,,,0.15,LWC V2.11 B50,2013-04-01 00:15:00,
2013-03-31 19:20:00,66.7,64.3,29.80,NE,38,0.0,0.0,92,0.00,,,0.15,LWC V2.11 B50,2013-04-01 00:20:00,
2013-03-31 19:25:00,66.6,64.2,29.79,NE,38,0.0,0.0,92,0.00,,,0.15,LWC V2.11 B50,2013-04-01 00:25:00,
2013-03-31 19:30:00,66.6,64.2,29.79,NE,38,0.0,1.0,92,0.00,,,0.15,LWC V2.11 B50,2013-04-01 00:30:00,
2013-03-31 19:35:00,66.4,63.7,29.79,NNE,13,2.0,3.0,91,0.00,,,0.15,LWC V2.11 B50,2013-04-01 00:35:00,
2013-03-31 19:40:00,66.4,64.0,29.80,NNE,13,1.0,1.0,92,0.00,,,0.15,LWC V2.11 B50,2013-04-01 00:40:00,
2013-03-31 19:45:00,66.2,64.1,29.80,NNE,13,0.0,0.0,93,0.00,,,0.15,LWC V2.11 B50,2013-04-01 00:45:00,
2013-03-31 19:50:00,66.0,63.9,29.80,NNE,13,0.0,0.0,93,0.00,,,0.15,LWC V2.11 B50,2013-04-01 00:50:00,
2013-03-31 19:55:00,65.9,63.8,29.80,NNE,13,0.0,0.0,93,0.00,,,0.15,LWC V2.11 B50,2013-04-01 00:55:00,
2013-03-31 20:00:00,65.7,63.6,29.81,NNE,13,0.0,0.0,93,0.00,,,0.15,LWC V2.11 B50,2013-04-01 01:00:00,
2013-03-31 20:05:00,65.6,63.8,29.81,NNE,13,0.0,1.0,94,0.00,,,0.15,LWC V2.11 B50,2013-04-01 01:05:00,
2013-03-31 20:10:00,65.4,63.6,29.81,NNE,13,0.0,1.0,94,0.00,,,0.15,LWC V2.11 B50,2013-04-01 01:10:00,
2013-03-31 20:15:00,65.2,63.4,29.81,NNE,13,0.0,2.0,94,0.00,,,0.15,LWC V2.11 B50,2013-04-01 01:15:00,
2013-03-31 20:21:00,65.0,63.2,29.82,NNE,13,1.0,1.0,94,0.00,,,0.15,LWC V2.11 B50,2013-04-01 01:21:00,
2013-03-31 20:26:00,64.8,63.0,29.82,NNE,13,0.0,0.0,94,0.00,,,0.15,LWC V2.11 B50,2013-04-01 01:26:00,
2013-03-31 20:31:00,64.6,62.8,29.83,NNE,13,0.0,1.0,94,0.00,,,0.15,LWC V2.11 B50,2013-04-01 01:31:00,
2013-03-31 20:36:00,64.5,62.7,29.83,NNE,13,0.0,0.0,94,0.00,,,0.15,LWC V2.11 B50,2013-04-01 01:36:00,
2013-03-31 20:41:00,64.3,62.8,29.83,NNE,13,0.0,1.0,95,0.00,,,0.15,LWC V2.11 B50,2013-04-01 01:41:00,
2013-03-31 20:46:00,64.2,62.7,29.84,NNE,13,0.0,0.0,95,0.00,,,0.15,LWC V2.11 B50,2013-04-01 01:46:00,
2013-03-31 20:51:00,64.0,62.5,29.84,NNE,13,0.0,0.0,95,0.00,,,0.15,LWC V2.11 B50,2013-04-01 01:51:00,
2013-03-31 20:57:00,63.9,62.4,29.85,NNE,13,0.0,0.0,95,0.00,,,0.15,LWC V2.11 B50,2013-04-01 01:57:00,
2013-03-31 21:02:00,63.8,62.3,29.85,NNE,13,0.0,0.0,95,0.00,,,0.15,LWC V2.11 B50,2013-04-01 02:02:00,
2013-03-31 21:07:00,63.7,62.2,29.86,NNE,13,0.0,0.0,95,0.00,,,0.15,LWC V2.11 B50,2013-04-01 02:07:00,
2013-03-31 21:12:00,63.7,62.5,29.87,NNE,13,0.0,3.0,96,0.00,,,0.15,LWC V2.11 B50,2013-04-01 02:12:00,
2013-03-31 21:17:00,63.6,62.4,29.88,NNE,13,0.0,0.0,96,0.00,,,0.15,LWC V2.11 B50,2013-04-01 02:17:00,
2013-03-31 21:22:00,63.5,62.0,29.89,NNE,13,0.0,0.0,95,0.00,,,0.15,LWC V2.11 B50,2013-04-01 02:22:00,
2013-03-31 21:27:00,63.5,62.3,29.89,NNE,13,0.0,1.0,96,0.00,,,0.15,LWC V2.11 B50,2013-04-01 02:27:00,
2013-03-31 21:32:00,63.5,62.3,29.89,NNE,13,0.0,1.0,96,0.00,,,0.15,LWC V2.11 B50,2013-04-01 02:32:00,
2013-03-31 21:38:00,63.7,62.5,29.89,NNE,13,0.0,1.0,96,0.00,,,0.15,LWC V2.11 B50,2013-04-01 02:38:00,
2013-03-31 21:43:00,63.8,62.6,29.90,NNE,13,0.0,2.0,96,0.00,,,0.15,LWC V2.11 B50,2013-04-01 02:43:00,
2013-03-31 21:48:00,63.9,62.7,29.90,NNE,13,0.0,3.0,96,0.00,,,0.15,LWC V2.11 B50,2013-04-01 02:48:00,
2013-03-31 21:53:00,64.0,62.8,29.90,NNE,13,1.0,2.0,96,0.00,,,0.15,LWC V2.11 B50,2013-04-01 02:53:00,
2013-03-31 21:58:00,64.0,62.8,29.91,NNE,13,0.0,1.0,96,0.00,,,0.15,LWC V2.11 B50,2013-04-01 02:58:00,
2013-03-31 22:03:00,64.0,62.8,29.91,NNE,13,0.0,2.0,96,0.00,,,0.15,LWC V2.11 B50,2013-04-01 03:03:00,
2013-03-31 22:08:00,64.0,62.8,29.91,NNE,13,1.0,2.0,96,0.00,,,0.15,LWC V2.11 B50,2013-04-01 03:08:00,
2013-03-31 22:13:00,63.9,62.4,29.92,NNE,13,0.0,0.0,95,0.00,,,0.15,LWC V2.11 B50,2013-04-01 03:13:00,
2013-03-31 22:18:00,63.9,62.4,29.92,NNE,13,0.0,0.0,95,0.00,,,0.15,LWC V2.11 B50,2013-04-01 03:18:00,
2013-03-31 22:23:00,63.9,62.4,29.92,NNE,13,1.0,1.0,95,0.00,,,0.15,LWC V2.11 B50,2013-04-01 03:23:00,
2013-03-31 22:28:00,63.9,62.4,29.92,NNE,13,0.0,2.0,95,0.00,,,0.15,LWC V2.11 B50,2013-04-01 03:28:00,
2013-03-31 22:33:00,64.0,62.5,29.92,NNE,13,0.0,0.0,95,0.00,,,0.15,LWC V2.11 B50,2013-04-01 03:33:00,
2013-03-31 22:38:00,64.0,62.5,29.92,NNE,13,1.0,3.0,95,0.00,,,0.15,LWC V2.11 B50,2013-04-01 03:38:00,
2013-03-31 22:43:00,64.1,62.6,29.92,NNE,13,1.0,1.0,95,0.00,,,0.15,LWC V2.11 B50,2013-04-01 03:43:00,
2013-03-31 22:48:00,64.0,62.2,29.92,NNE,13,0.0,0.0,94,0.00,,,0.15,LWC V2.11 B50,2013-04-01 03:48:00,
2013-03-31 22:53:00,64.0,62.2,29.92,NNE,13,0.0,1.0,94,0.00,,,0.15,LWC V2.11 B50,2013-04-01 03:53:00,
2013-03-31 22:58:00,64.0,62.2,29.92,NNE,13,0.0,2.0,94,0.00,,,0.15,LWC V2.11 B50,2013-04-01 03:58:00,
2013-03-31 23:00:00,64.0,62.2,29.92,NNE,13,0.0,1.0,94,0.00,,,0.15,LWC V2.11 B50,2013-04-01 04:00:00,
2013-03-31 23:01:00,64.1,62.3,29.92,NNE,13,0.0,2.0,94,0.00,,,0.15,LWC V2.11 B50,2013-04-01 04:01:00,
2013-03-31 23:02:00,64.1,62.3,29.93,NNE,13,0.0,2.0,94,0.00,,,0.15,LWC V2.11 B50,2013-04-01 04:02:00,
2013-03-31 23:07:00,64.2,62.4,29.93,NNE,13,1.0,2.0,94,0.00,,,0.15,LWC V2.11 B50,2013-04-01 04:07:00,
2013-03-31 23:12:00,64.3,62.2,29.93,NNE,13,0.0,0.0,93,0.00,,,0.15,LWC V2.11 B50,2013-04-01 04:12:00,
2013-03-31 23:17:00,64.1,62.0,29.93,NNE,13,0.0,1.0,93,0.00,,,0.15,LWC V2.11 B50,2013-04-01 04:17:00,
2013-03-31 23:22:00,64.0,61.9,29.93,NNE,13,0.0,1.0,93,0.00,,,0.15,LWC V2.11 B50,2013-04-01 04:22:00,
2013-03-31 23:27:00,64.0,61.9,29.93,NNE,13,0.0,0.0,93,0.00,,,0.15,LWC V2.11 B50,2013-04-01 04:27:00,
2013-03-31 23:32:00,64.0,61.9,29.93,NNE,13,0.0,0.0,93,0.00,,,0.15,LWC V2.11 B50,2013-04-01 04:32:00,
2013-03-31 23:37:00,64.0,61.9,29.93,NNE,13,0.0,0.0,93,0.00,,,0.15,LWC V2.11 B50,2013-04-01 04:37:00,
2013-03-31 23:42:00,63.8,61.7,29.94,NNE,13,0.0,0.0,93,0.00,,,0.15,LWC V2.11 B50,2013-04-01 04:42:00,
2013-03-31 23:47:00,63.4,61.6,29.94,NNE,13,0.0,0.0,94,0.00,,,0.15,LWC V2.11 B50,2013-04-01 04:47:00,
2013-03-31 23:52:00,63.3,61.5,29.93,NNE,13,0.0,0.0,94,0.00,,,0.15,LWC V2.11 B50,2013-04-01 04:52:00,
2013-03-31 23:58:00,63.1,61.3,29.93,NNE,13,0.0,0.0,94,0.00,,,0.15,LWC V2.11 B50,2013-04-01 04:58:00,